Temp
25 25 27 27 26 26 25 25 24 26 23 22 21 20 21 20 22 21 21 22 22 22 21 21 21 22 23 23 23 24 24 24 23 25 25 25 24 24 24 24 24 24 24 24
24 26 26 28 26 25 25 24 23 22 21 20 21 21 20 20 20 19 19 18 21 20 20 19 20 21 22 23 24 26 26 23 22 24 24 25 24 23 23 23 23 24 24 24
22 24 25 23 24 24 23 22 22 21 20 19 19 20 20 19 20 19 18 18 17 19 19 19 19 20 21 23 22 22 22 22 21 23 23 23 24 23 23 23 21 22 23 22
20 22 23 23 23 24 22 22 21 20 20 19 18 18 18 17 17 18 17 17 16 16 16 17 18 19 19 20 21 20 21 22 22 22 21 21 22 23 23 22 22 20 21 21
18 19 22 22 20 21 22 19 21 21 21 20 19 18 16 16 15 15 15 15 15 15 16 16 17 18 19 20 20 20 21 22 21 21 20 20 21 22 22 22 21 20 20 19
17 17 20 17 20 21 21 18 20 20 19 18 19 19 17 14 14 14 13 13 13 14 15 16 16 18 19 19 19 20 19 20 20 20 20 20 20 20 21 21 20 19 18 18
17 18 19 18 18 19 21 18 20 20 18 17 17 16 14 14 13 12 12 12 12 13 13 14 15 16 16 17 16 18 19 19 19 19 19 18 19 19 19 19 18 17 17 17
17 17 19 18 19 20 17 16 17 17 16 16 14 14 13 13 12 12 11 12 12 12 12 13 15 15 14 15 15 17 18 18 18 18 18 18 18 18 18 18 17 16 17 16
16 17 15 16 17 16 15 16 15 16 15 14 13 13 13 12 12 11 11 11 12 12 12 13 14 14 14 14 15 16 16 16 16 17 17 17 17 17 16 16 16 16 15 15
16 16 16 17 18 17 17 16 15 14 13 12 13 12 12 11 11 11 12 12 12 12 12 12 14 14 14 14 15 15 14 14 15 15 15 14 15 15 15 15 15 15 15 15
15 16 16 16 18 17 17 16 14 14 13 12 12 12 12 11 11 11 12 12 13 13 12 13 13 14 14 15 15 14 14 14 14 14 14 14 14 13 13 13 14 14 15 16
15 15 15 17 17 17 16 15 14 13 12 12 11 11 12 12 12 12 12 12 13 13 13 12 13 13 14 14 15 15 14 14 14 15 14 14 14 13 13 13 13 14 14 15
17 16 16 18 17 18 16 16 15 13 13 11 12 12 12 11 12 12 12 12 12 12 12 12 13 13 14 14 14 15 15 15 15 14 14 14 14 14 14 12 14 13 14 15
17 17 19 19 17 18 17 16 15 14 13 13 13 13 12 12 12 12 13 13 13 13 13 14 14 14 14 14 14 14 15 15 15 15 15 15 14 14 14 14 14 13 13 13
17 19 18 18 18 18 18 16 15 14 13 13 13 12 13 12 12 13 13 13 13 13 13 13 14 14 13 14 13 14 14 15 15 15 16 15 15 15 15 14 14 13 13 13
18 19 19 18 17 18 17 17 16 15 14 14 13 13 13 13 13 14 14 13 13 13 14 13 13 14 14 14 14 14 14 14 14 14 14 15 15 14 15 15 14 13 14 14
18 18 18 18 19 19 16 17 17 15 15 15 14 14 14 14 13 13 14 14 14 14 14 15 15 14 14 14 14 14 13 13 14 14 14 14 14 14 14 14 14 13 13 14
18 17 17 18 16 17 16 17 17 16 16 16 16 15 14 14 13 14 15 15 15 14 15 15 15 14 14 14 13 13 13 13 13 13 13 13 13 13 13 13 13 14 14 14
20 17 18 19 19 18 17 16 17 17 18 18 17 15 16 16 15 16 16 15 14 14 16 16 15 15 15 14 14 13 13 13 13 13 14 13 13 13 13 13 13 13 13 13
19 19 20 20 20 19 18 18 19 19 19 19 18 17 16 17 16 16 15 14 14 15 16 16 16 15 15 14 14 14 13 13 13 13 13 13 14 14 13 13 13 13 13 13
17 18 19 18 18 19 20 20 18 17 18 18 18 17 16 16 16 16 14 14 14 15 16 16 15 15 14 14 14 14 13 13 13 13 13 13 13 13 13 13 13 13 13 13
17 17 18 19 18 18 19 19 19 19 18 17 17 16 16 15 15 15 15 15 14 14 14 14 14 14 14 13 13 13 13 13 13 13 13 13 13 13 13 14 14 14 14 14
18 18 19 18 18 19 19 19 19 19 18 17 16 16 16 16 15 14 12 13 13 14 14 14 14 14 14 13 12 12 12 12 12 12 12 12 12 13 14 13 14 13 13 13
18 19 19 20 20 19 15 18 18 18 18 17 16 16 16 15 14 15 15 13 14 13 13 13 13 13 12 12 11 11 11 11 11 11 11 11 11 12 12 12 12 12 12 12
19 20 19 18 16 16 18 18 17 16 16 16 16 15 15 15 15 14 14 14 14 13 13 13 13 12 12 12 12 11 10 10 10 10 10 10 10 11 11 10 10 11 11 11
18 17 18 18 18 18 17 16 14 14 14 14 15 15 15 15 15 14 14 14 14 14 13 13 13 13 12 12 12 12 11 10 10 10 10 10 10 10 11 10 10 9 9 9
18 18 16 15 17 17 16 15 14 13 14 15 14 14 14 15 15 14 14 14 14 14 14 13 13 13 13 12 12 12 12 12 12 11 11 11 11 10 10 10 8 7 7 7
Height
787 781 774 776 782 779 786 783 796 778 789 788 784 780 782 780 778 774 774 776 773 781 784 786 789 792 798 801 807 812 814 820 826 828 829 833 837 840 844 845 846 847 849 851
796 781 776 774 781 784 781 782 783 788 797 790 783 782 779 777 783 785 786 789 786 778 784 787 787 791 795 800 803 805 809 816 822 826 828 830 833 837 839 841 846 847 847 847
812 788 784 807 792 793 796 793 794 805 804 797 795 788 785 781 787 787 782 795 797 790 790 789 790 793 796 798 800 800 808 814 818 820 825 829 831 832 836 838 842 845 844 845
817 802 819 806 790 786 796 799 798 800 798 802 798 795 789 793 799 796 791 801 790 795 794 792 795 797 800 798 800 802 808 806 812 818 822 826 828 829 831 834 837 841 843 842
827 826 806 804 807 807 797 814 802 802 799 799 801 801 805 804 805 809 809 813 807 802 794 795 793 793 796 799 801 803 805 807 811 814 821 824 825 827 829 832 834 837 838 841
830 838 826 824 805 795 794 829 807 802 806 805 801 810 813 814 812 813 811 811 810 803 798 796 794 794 798 801 802 801 804 807 809 813 818 821 824 827 827 830 831 833 837 840
826 832 822 808 800 795 815 826 804 798 804 806 810 812 814 817 817 817 816 813 809 803 804 803 799 797 799 797 791 801 798 808 809 813 817 822 823 825 827 830 834 837 839 839
823 828 831 802 798 807 810 807 806 809 810 810 813 816 816 815 816 817 816 814 812 811 809 804 800 800 801 802 805 802 804 799 795 810 818 822 824 827 828 829 834 839 839 838
819 815 804 802 801 803 801 801 808 809 811 811 813 817 821 821 818 815 815 818 816 814 810 807 805 805 807 808 809 810 810 811 811 814 818 822 826 829 830 832 835 836 838 840
813 806 803 801 800 799 800 801 802 809 814 815 816 818 820 824 823 818 814 814 820 815 815 814 813 813 813 815 816 818 818 818 820 821 822 825 828 830 832 834 837 837 839 841
815 807 807 802 800 799 802 805 806 810 815 818 818 819 820 824 824 825 821 819 822 817 819 818 820 817 820 822 825 822 822 825 824 826 827 829 832 833 836 835 835 837 838 840
814 801 804 800 798 801 801 804 807 808 816 818 820 822 823 826 827 828 829 827 826 825 826 826 826 826 824 827 828 829 828 830 830 830 832 832 835 836 839 840 840 841 841 840
788 786 794 792 793 799 798 803 807 809 812 817 823 824 826 828 829 828 830 834 831 829 829 831 831 831 831 832 834 835 835 834 834 836 833 833 836 838 838 841 841 843 844 844
779 784 790 791 797 798 799 803 807 811 815 818 820 822 824 827 829 830 830 832 832 833 832 832 835 835 835 835 836 834 833 834 835 834 835 837 839 841 839 842 841 842 846 843
782 780 783 786 792 796 799 804 809 813 816 817 820 822 822 824 827 829 830 832 832 833 834 833 833 836 837 837 837 836 836 836 837 838 841 841 843 842 843 842 841 844 845 844
780 781 783 787 790 793 797 802 805 809 813 814 816 819 821 825 825 827 827 828 830 830 832 833 833 835 837 836 837 837 838 839 840 842 842 843 843 842 843 840 842 843 843 843
780 783 783 785 787 790 795 797 798 804 808 810 811 815 821 822 824 825 824 825 826 828 829 830 831 834 836 837 837 838 839 840 839 839 840 841 841 841 840 841 842 843 845 845
771 775 777 781 786 789 792 792 795 800 804 806 810 815 817 819 820 820 819 820 822 825 827 828 829 831 833 834 836 837 838 839 840 839 839 841 842 842 841 841 841 841 841 842
768 773 775 778 782 785 789 791 793 796 799 803 806 809 812 815 817 817 816 819 821 823 823 824 825 827 829 831 834 835 835 837 838 838 838 839 839 839 840 840 840 840 840 840
766 769 771 775 779 782 786 789 791 794 797 800 803 806 809 810 813 814 815 818 819 819 820 821 822 824 825 827 829 830 832 832 834 835 836 836 836 836 836 837 837 838 838 838
766 769 772 775 779 781 783 786 790 794 796 799 801 804 806 809 810 811 814 816 818 818 818 819 819 821 823 824 826 827 829 829 830 830 832 831 831 832 833 834 834 834 835 836
766 770 772 775 779 782 784 786 789 791 794 797 800 802 805 808 810 811 812 814 816 818 818 819 821 821 822 822 823 824 824 825 826 827 827 827 826 826 827 829 829 829 829 830
763 766 770 773 776 779 782 784 786 788 791 794 797 801 804 806 807 810 812 814 815 817 818 819 820 820 820 820 821 821 821 821 821 821 822 822 823 823 823 824 824 824 824 825
759 762 764 767 770 774 777 778 781 784 787 791 793 796 799 803 806 807 809 812 813 815 817 819 820 820 820 820 820 819 818 818 818 818 819 819 819 819 820 819 820 820 820 819
752 755 759 762 765 767 769 772 778 781 784 787 791 794 796 800 803 806 807 810 812 814 816 817 819 819 819 819 818 817 815 815 816 815 815 815 815 815 816 816 816 815 815 814
747 748 749 751 753 757 761 766 771 775 779 783 787 790 792 796 799 803 807 809 810 813 814 816 816 817 818 818 817 817 815 814 813 813 813 813 813 814 814 813 811 808 806 805
739 741 745 748 750 751 755 760 764 770 775 780 786 788 790 794 796 800 803 806 808 810 811 813 814 815 816 816 816 816 816 815 814 814 814 814 813 813 812 808 804 800 797 796
Wind_Speed
9 9 3 1 5 13 5 5 5 3 5 4 6 9 11 14 18 19 14 2 11 11 14 21 25 31 32 33 31 30 24 20 28 32 29 29 25 23 21 26 22 18 13 13
1 7 7 1 14 13 9 6 6 6 9 6 5 4 12 11 10 16 19 16 6 9 12 18 21 25 30 32 27 27 25 20 19 29 25 23 20 15 19 16 22 19 14 12
4 5 4 7 6 12 12 11 3 9 5 6 10 13 13 12 4 6 19 14 10 5 1 9 15 25 29 31 22 18 29 16 20 17 20 12 21 19 25 17 16 13 11 9
3 4 2 1 8 17 18 13 7 5 6 9 9 12 15 14 12 12 13 4 10 11 13 7 7 18 16 21 18 23 27 26 20 19 16 12 11 15 17 19 20 18 11 11
3 1 2 3 6 4 3 7 7 5 4 4 7 7 9 13 12 9 8 4 1 5 14 11 7 13 16 15 17 22 24 22 18 19 20 15 13 12 14 17 17 18 12 10
3 2 5 4 8 9 2 3 5 5 5 2 3 3 2 7 8 9 9 9 8 9 13 13 9 9 13 10 17 22 22 20 19 19 14 13 13 11 11 13 15 16 16 13
4 1 4 2 11 9 3 5 1 3 2 2 3 3 5 6 7 8 8 10 12 16 14 12 13 14 16 13 10 5 14 15 17 17 16 14 13 11 13 15 16 16 14 10
1 4 6 1 5 5 4 3 4 4 3 7 6 6 6 5 6 9 10 13 14 13 16 17 16 19 22 20 14 15 14 15 22 21 16 15 13 13 16 18 16 13 11 11
5 5 3 3 2 2 4 7 5 8 4 4 5 4 5 3 4 7 12 12 14 15 19 22 21 21 23 19 15 15 19 18 19 19 18 16 16 14 13 14 14 12 10 10
2 3 4 3 2 4 3 6 9 5 3 4 5 6 7 4 4 5 12 14 11 17 16 19 21 21 20 17 19 21 22 21 19 17 15 15 14 13 13 10 9 12 11 11
1 4 3 6 1 8 10 11 12 10 7 6 7 6 6 4 5 6 10 12 10 15 14 17 16 18 15 15 14 18 19 17 19 18 16 14 13 13 9 8 6 6 11 14
5 8 5 6 7 11 12 12 11 13 6 8 7 6 9 7 5 5 5 11 14 14 12 10 12 13 13 10 9 10 15 13 10 13 12 11 10 12 9 9 8 7 5 12
5 9 5 7 13 8 12 10 11 11 11 8 9 13 9 6 6 10 8 6 8 10 11 9 9 9 8 8 8 8 8 8 6 6 8 8 6 5 7 5 7 7 5 3
5 8 2 6 7 11 15 16 18 14 15 16 19 16 14 10 8 8 9 9 7 6 8 8 7 7 6 4 5 6 6 8 8 5 6 3 3 3 4 4 4 5 6 5
7 7 7 8 15 13 16 18 11 10 13 13 16 16 17 16 14 13 10 9 8 4 1 1 2 1 1 3 3 3 5 6 8 7 5 5 1 3 7 6 5 4 3 1
8 8 8 12 12 13 14 14 13 12 14 17 16 18 21 18 16 15 13 13 10 10 7 6 6 3 3 2 2 2 1 2 2 2 3 2 2 2 4 2 8 7 4 5
6 5 6 7 11 11 9 13 15 17 19 17 20 22 22 20 17 19 19 19 17 15 12 10 9 6 7 8 7 6 5 4 3 4 3 3 5 4 2 0 0 9 10 7
8 9 10 9 7 7 7 11 18 21 21 25 22 22 22 22 21 24 23 22 20 19 17 16 14 13 13 13 12 11 9 8 7 4 4 6 6 5 5 3 0 1 6 12
9 11 14 15 17 15 15 16 18 19 21 16 20 23 27 26 27 26 27 22 23 22 21 18 19 18 19 18 16 13 13 12 11 10 7 6 9 9 8 8 7 5 5 12
6 17 18 15 18 22 17 25 27 25 22 19 18 17 14 14 12 7 5 4 5 8 11 14 16 18 18 16 16 15 14 15 15 15 15 14 11 11 10 9 10 12 10 11
8 14 15 16 15 20 22 20 24 22 21 21 22 20 19 18 15 12 14 10 8 5 3 6 8 11 13 16 17 18 18 17 16 16 14 19 23 19 17 17 16 14 14 15
11 12 14 17 17 17 18 16 17 16 18 18 18 20 20 15 11 8 7 12 12 11 9 7 5 4 1 4 10 17 18 19 21 21 19 17 19 24 25 22 20 21 19 17
16 19 20 20 20 21 20 20 20 19 20 21 21 18 15 12 12 15 13 14 13 8 4 5 5 2 4 6 8 8 7 8 12 17 17 16 18 17 17 23 25 23 19 16
18 22 26 28 27 24 15 23 23 25 26 24 21 19 16 12 6 7 10 15 12 11 11 9 7 9 10 8 6 5 7 9 8 9 9 8 8 8 10 11 13 14 15 16
25 26 26 25 21 20 27 26 26 27 27 24 21 18 16 13 10 17 18 16 13 13 11 8 5 4 4 6 9 9 5 5 6 6 7 8 8 8 10 13 16 19 21 22
22 20 24 31 29 26 26 30 24 26 26 25 22 19 16 11 11 22 19 16 13 10 12 10 9 7 5 2 4 9 10 6 3 2 3 3 2 4 11 16 19 22 24 25
17 16 10 7 17 23 25 26 24 22 25 23 17 14 15 21 20 23 20 16 15 16 17 17 16 14 12 10 6 1 3 4 4 4 4 4 4 6 14 21 20 19 18 18
Wind_Direction
301 269 263 181 8 12 34 246 163 284 76 6 89 86 66 56 31 38 27 353 165 164 175 172 170 174 180 182 187 197 193 209 225 222 217 221 222 229 232 233 227 220 219 233
258 305 314 332 52 56 18 17 32 27 68 347 331 82 49 54 59 48 40 5 310 154 166 179 175 182 181 183 178 190 211 226 230 229 220 216 201 218 216 236 232 232 223 229
289 302 72 48 66 83 70 33 23 47 315 331 20 39 42 49 6 64 57 10 2 355 184 192 193 194 201 199 199 199 200 205 213 209 219 239 216 205 227 223 218 226 206 208
257 10 75 353 36 93 83 53 60 83 50 63 64 48 37 32 48 68 88 308 26 9 21 21 262 230 219 217 207 187 199 201 214 227 232 223 217 219 223 227 221 239 234 210
46 304 199 67 15 334 339 42 356 68 70 114 140 96 44 20 35 42 59 55 24 93 72 46 44 239 234 215 199 204 211 218 220 217 208 217 238 238 216 215 202 200 217 211
64 320 197 249 289 317 191 44 337 77 71 357 322 83 71 34 37 39 35 33 44 44 69 68 75 135 176 187 200 196 208 201 203 184 186 184 192 186 180 190 179 170 174 172
131 138 265 255 297 296 100 209 5 86 29 67 105 100 103 76 58 51 53 61 61 68 57 65 78 109 104 112 60 121 201 184 164 162 170 182 172 172 170 165 159 153 153 144
49 121 260 212 299 116 190 1 95 102 100 108 101 98 89 74 75 59 44 47 65 65 68 76 81 91 81 74 83 112 154 144 132 145 154 158 154 152 161 163 164 159 147 129
185 215 230 273 211 159 179 142 156 147 151 150 132 115 109 97 85 84 80 59 75 72 71 76 82 83 81 87 93 95 98 94 103 131 141 152 159 158 159 165 167 163 157 145
85 270 227 237 172 161 188 124 124 111 124 101 119 93 91 90 73 60 91 84 83 88 79 79 83 82 83 87 96 99 98 97 100 99 102 113 131 141 147 151 166 166 159 159
348 338 9 296 307 142 129 122 112 110 116 141 128 116 112 80 59 87 98 107 103 91 86 91 94 93 95 94 98 98 95 96 100 100 99 100 99 96 102 119 133 159 181 178
213 202 176 208 198 169 145 136 136 124 122 118 127 131 133 121 96 73 89 121 115 102 94 79 81 85 89 95 112 114 113 116 110 111 114 117 122 121 114 107 95 90 111 178
195 165 184 161 152 164 127 136 138 132 135 139 150 149 144 133 134 127 120 90 82 88 85 78 85 87 86 83 106 103 106 104 109 154 132 128 131 133 146 145 151 164 192 220
160 123 109 142 158 155 146 146 143 144 155 164 166 172 167 161 154 151 144 138 124 106 98 90 78 79 81 80 71 65 64 61 38 59 183 181 186 182 150 176 167 175 196 196
175 195 176 143 147 155 150 143 151 156 169 173 182 183 183 181 189 190 179 173 162 159 257 153 108 54 52 55 57 80 72 106 80 97 87 73 285 273 262 246 224 220 191 160
192 171 164 154 162 159 162 172 167 174 178 187 186 202 205 211 210 205 204 201 214 233 233 234 233 245 269 296 319 343 17 61 80 91 96 88 72 82 51 9 228 221 214 181
144 135 142 151 166 171 173 188 180 178 186 187 197 204 206 210 218 218 221 222 232 244 250 248 258 264 260 255 252 250 261 280 279 279 299 319 329 348 342 107 166 237 236 222
169 172 160 151 152 136 133 145 168 179 187 199 200 195 199 203 214 223 226 225 229 240 247 253 258 254 250 248 248 250 247 258 277 288 283 254 269 288 304 342 43 155 245 214
159 179 174 157 165 154 145 141 145 151 156 171 198 187 199 209 222 234 234 228 228 231 247 253 253 251 250 243 239 240 236 239 248 253 263 265 253 261 277 272 274 273 267 222
148 173 168 161 167 159 155 154 152 156 162 165 150 154 152 155 158 139 145 160 213 231 256 260 252 243 253 250 242 241 244 241 244 251 253 253 255 252 252 256 269 266 265 247
166 164 157 152 162 173 171 171 176 179 178 172 171 166 149 149 150 150 148 138 120 120 199 236 225 239 244 252 248 247 249 250 248 248 268 260 255 251 247 248 248 256 257 259
172 167 165 166 160 168 179 177 170 178 188 184 177 158 151 150 145 137 164 161 145 146 132 118 100 97 49 254 244 251 256 260 258 261 261 270 267 261 255 251 254 250 252 258
183 185 183 181 185 193 190 189 185 180 171 170 164 163 162 167 152 143 138 145 147 150 147 107 75 24 284 257 247 250 254 256 264 266 265 266 271 264 261 252 257 251 252 245
199 200 198 199 198 198 197 210 203 187 181 172 170 173 167 170 164 173 167 159 160 156 140 121 99 78 71 60 24 306 275 264 269 277 278 270 273 275 272 269 263 255 251 246
210 211 207 200 196 207 210 211 182 175 173 172 171 166 166 174 165 164 156 154 156 165 160 161 142 114 90 59 39 16 339 286 285 286 287 279 274 278 286 290 285 276 272 269
218 211 211 209 207 207 201 182 174 169 163 161 166 173 174 189 193 174 173 171 171 187 198 198 206 212 212 200 43 32 34 55 54 29 17 11 10 37 0 333 311 295 284 274
231 223 211 206 208 193 182 176 161 161 156 157 165 180 177 169 172 182 188 194 202 215 226 225 224 227 230 226 236 330 25 69 40 39 41 34 14 341 340 329 323 309 292 285